Gene Autry, OK

2:05 PM CST on January 20, 2017 (GMT -0600)
Ardmore Municipal

Weather History for KADM - November, 2011

Change the Weather History Date:

Saturday, November 26, 2011

  Actual Average Record
Temperature  
Mean Temperature 53 °F -  
Max Temperature 62 °F 58 °F 84 °F (2000)
Min Temperature 44 °F 40 °F 23 °F (2010)
Degree Days  
Heating Degree Days 12    
Growing Degree Days 3 (Base 50)    
Moisture  
Dew Point 46 °F    
Average Humidity 72    
Maximum Humidity 94    
Minimum Humidity 37    
Precipitation  
Precipitation 0.06 in - - ()
Sea Level Pressure  
Sea Level Pressure 29.92 in    
Wind  
Wind Speed 15 mph (South)    
Max Wind Speed 28 mph    
Max Gust Speed 34 mph    
Visibility 10 miles    
Events Rain    
Averages and records for this station are not official NWS values.
T = Trace of Precipitation, MM = Missing Value Source: NWS Daily Summary

Daily Weather History Graph

Daily Weather History Graph

Search for Another Location

Airport or City:

Trip Planner

Search our weather history database for the weather conditions in past years. The results will help you decide how hot, cold, wet, or windy it might be!

Date:

Astronomy

Nov. 26, 2011 Rise Set
Actual Time 7:11 AM CST 5:19 PM CST
Civil Twilight 6:44 AM CST 5:46 PM CST
Nautical Twilight 6:13 AM CST 6:17 PM CST
Astronomical Twilight 5:43 AM CST 6:47 PM CST
Moon 8:40 AM CST (11/26) 6:53 PM CST (11/26)
Length of Visible Light 11h 02m
Length of Day
10h 07m
Waxing Crescent, 3% of the Moon is Illuminated
Nov 26
Waxing Crescent
Dec 2
First Quarter
Dec 10
Full
Dec 17
Last Quarter
Dec 24
New

Hourly Weather History & Observations

Time (CST) Temp. Windchill Dew Point Humidity Pressure Visibility Wind Dir Wind Speed Gust Speed Precip Events Conditions
12:35 AM 62.6 °F - 53.6 °F 72% 29.81 in 10.0 mi SSE 17.3 mph - N/A   Scattered Clouds
12:55 AM 62.6 °F - 53.6 °F 72% 29.80 in 10.0 mi SSE 15.0 mph 21.9 mph N/A   Scattered Clouds
1:15 AM 62.6 °F - 55.4 °F 77% 29.80 in 10.0 mi South 16.1 mph 21.9 mph N/A Rain Rain
1:35 AM 60.8 °F - 55.4 °F 82% 29.80 in 10.0 mi South 15.0 mph 20.7 mph N/A   Drizzle
1:55 AM 60.8 °F - 55.4 °F 82% 29.80 in 7.0 mi South 10.4 mph 23.0 mph 0.02 in Rain Rain
2:15 AM 60.8 °F - 55.4 °F 82% 29.80 in 10.0 mi South 9.2 mph 16.1 mph 0.01 in   Drizzle
2:35 AM 60.8 °F - 55.4 °F 82% 29.79 in 10.0 mi SSE 10.4 mph - 0.03 in Rain Rain
2:55 AM 60.8 °F - 55.4 °F 82% 29.79 in 10.0 mi SSE 12.7 mph 18.4 mph 0.03 in   Scattered Clouds
3:15 AM 60.8 °F - 55.4 °F 82% 29.77 in 10.0 mi SSE 11.5 mph - N/A   Scattered Clouds
3:35 AM 60.8 °F - 55.4 °F 82% 29.78 in 10.0 mi South 10.4 mph - N/A   Light Drizzle
3:55 AM 60.8 °F - 57.2 °F 88% 29.77 in 10.0 mi South 9.2 mph - N/A Rain Rain
4:15 AM 60.8 °F - 57.2 °F 88% 29.77 in 10.0 mi South 10.4 mph - 0.01 in Rain Light Rain
4:35 AM 60.8 °F - 57.2 °F 88% 29.76 in 10.0 mi South 11.5 mph 17.3 mph 0.01 in   Overcast
4:55 AM 60.8 °F - 57.2 °F 88% 29.77 in 10.0 mi South 10.4 mph - 0.01 in   Mostly Cloudy
5:15 AM 60.8 °F - 57.2 °F 88% 29.77 in 10.0 mi South 8.1 mph - N/A   Mostly Cloudy
5:35 AM 60.8 °F - 57.2 °F 88% 29.77 in 10.0 mi South 8.1 mph - N/A   Mostly Cloudy
5:55 AM 60.8 °F - 57.2 °F 88% 29.77 in 10.0 mi South 8.1 mph - N/A   Mostly Cloudy
6:55 AM 59.0 °F - 57.2 °F 94% 29.80 in 10.0 mi South 8.1 mph - N/A   Mostly Cloudy
8:55 AM 53.6 °F - 50.0 °F 88% 29.86 in 10.0 mi NNW 19.6 mph 26.5 mph N/A   Mostly Cloudy
10:55 AM 55.4 °F - 46.4 °F 72% 29.94 in 10.0 mi NNW 27.6 mph 33.4 mph N/A   Overcast
1:55 PM 48.2 °F - 39.2 °F 71% 30.01 in 10.0 mi NNW 23.0 mph 28.8 mph N/A   Overcast
3:55 PM 48.2 °F - 39.2 °F 71% 30.03 in 10.0 mi NW 20.7 mph 26.5 mph N/A   Light Drizzle
9:15 PM 48.2 °F - 30.2 °F 50% 30.20 in 10.0 mi North 19.6 mph 29.9 mph N/A   Clear
9:35 PM 46.4 °F 40.1 °F 30.2 °F 53% 30.20 in 10.0 mi North 15.0 mph 27.6 mph N/A   Clear
10:15 PM 46.4 °F 38.3 °F 24.8 °F 43% 30.21 in 10.0 mi North 23.0 mph 28.8 mph N/A   Clear
10:35 PM 46.4 °F 39.5 °F 24.8 °F 43% 30.22 in 10.0 mi North 17.3 mph 27.6 mph N/A   Clear
10:55 PM 46.4 °F 39.2 °F 23.0 °F 40% 30.22 in 10.0 mi North 18.4 mph 29.9 mph N/A   Clear
11:15 PM 46.4 °F 39.2 °F 21.2 °F 37% 30.23 in 10.0 mi NNW 18.4 mph 32.2 mph N/A   Clear
11:35 PM 44.6 °F 35.5 °F 21.2 °F 39% 30.23 in 10.0 mi North 25.3 mph 34.5 mph N/A   Clear
11:55 PM 44.6 °F 37.2 °F 21.2 °F 39% 30.23 in 10.0 mi North 17.3 mph 27.6 mph N/A   Clear